Weather History for Miyakojima, Japan

Change the Weather History Date:

Tuesday, February 12, 2013

  Actual Average Record
Temperature  
Mean Temperature 72 °F -  
Max Temperature 77 °F 69 °F 77 °F (2013)
Min Temperature 64 °F 61 °F 53 °F (2008)
Cooling Degree Days 6    
Growing Degree Days 22 (Base 50)    
Moisture  
Dew Point 66 °F    
Average Humidity 82    
Maximum Humidity 96    
Minimum Humidity 69    
Precipitation  
Precipitation 0.28 in - - ()
Sea Level Pressure  
Sea Level Pressure 30.07 in    
Wind  
Wind Speed 10 mph ()    
Max Wind Speed 20 mph    
Max Gust Speed 28 mph    
Visibility 5.8 miles    
Events Rain    
Averages and records for this station are not official NWS values.
T = Trace of Precipitation, MM = Missing Value Source: Averaged Metar Reports

Daily Weather History Graph

Daily Weather History Graph

Search for Another Location

Airport:

Trip Planner

Search our weather history database for the weather conditions in past years. The results will help you decide how hot, cold, wet, or windy it might be!

Date:

Astronomy

Feb. 12, 2013 Rise Set
Actual Time 7:15 AM JST 6:31 PM JST
Civil Twilight 6:51 AM JST 6:54 PM JST
Nautical Twilight 6:24 AM JST 7:21 PM JST
Astronomical Twilight 5:58 AM JST 7:48 PM JST
Moon 8:11 AM JST (2/12) 8:32 PM JST (2/12)
Length of Visible Light 12h 02m
Length of Day
11h 16m
Waxing Crescent, 4% of the Moon is Illuminated
Feb 12
Waxing Crescent
Feb 18
First Quarter
Feb 26
Full
Mar 5
Last Quarter
Mar 12
New

Hourly Weather History & Observations

Time (JST) Temp. Dew Point Humidity Pressure Visibility Wind Dir Wind Speed Gust Speed Precip Events Conditions
12:00 AM 69 °F 64 °F 80% 30.14 in - SSE 5.8 mph - -  
3:00 AM 68 °F 66 °F 90% 30.09 in 12 mi SSE 5.8 mph - -   Scattered Clouds
6:00 AM 69 °F 67 °F 92% 30.09 in 12 mi South 5.8 mph - -   Partly Cloudy
6:30 AM 69.8 °F 66.2 °F 88% 30.06 in 6.2 mi SSE 6.9 mph - N/A   Mostly Cloudy
7:00 AM 71.6 °F 66.2 °F 83% 30.06 in 6.2 mi South 10.4 mph - N/A   Mostly Cloudy
8:00 AM 71.6 °F 66.2 °F 83% 30.06 in 6.2 mi SSE 9.2 mph - N/A   Partly Cloudy
9:00 AM 73 °F 68 °F 81% 30.12 in 12 mi South 10.4 mph - -   Partly Cloudy
9:00 AM 73.4 °F 66.2 °F 78% 30.09 in 6.2 mi South 13.8 mph - N/A   Partly Cloudy
10:00 AM 73.4 °F 66.2 °F 78% 30.09 in 6.2 mi South 11.5 mph - N/A   Mostly Cloudy
11:00 AM 75.2 °F 66.2 °F 73% 30.09 in 6.2 mi South 19.6 mph - N/A   Scattered Clouds
12:00 PM 75 °F 69 °F 77% 30.10 in 6 mi South 13.8 mph - - Rain Light Rain Showers
12:00 PM 75.2 °F 66.2 °F 73% 30.06 in 6.2 mi South 18.4 mph - N/A   Scattered Clouds
1:00 PM 75.2 °F 64.4 °F 69% 30.04 in 6.2 mi South 19.6 mph - N/A   Scattered Clouds
2:00 PM 77.0 °F 66.2 °F 69% 30.04 in 6.2 mi South 18.4 mph - N/A   Scattered Clouds
3:00 PM 76 °F 69 °F 75% 30.04 in 9 mi SSW 12.7 mph - -   Partly Cloudy
3:00 PM 75.2 °F 66.2 °F 73% 30.01 in 6.2 mi South 16.1 mph - N/A   Scattered Clouds
4:00 PM 77.0 °F 66.2 °F 69% 30.01 in 6.2 mi SSW 17.3 mph - N/A   Scattered Clouds
5:00 PM 75.2 °F 66.2 °F 73% 30.04 in 6.2 mi SSW 13.8 mph - N/A   Scattered Clouds
6:00 PM 74 °F 69 °F 79% 30.07 in 9 mi SW 9.2 mph - -   Mostly Cloudy
6:00 PM 73.4 °F 66.2 °F 78% 30.04 in 6.2 mi SW 10.4 mph - N/A   Mostly Cloudy
6:28 PM 69.8 °F 64.4 °F 83% 30.06 in 2.5 mi North 13.8 mph 27.6 mph N/A Rain Rain Showers
6:32 PM 68.0 °F 64.4 °F 88% 30.06 in 1.2 mi North 13.8 mph 27.6 mph N/A Rain Rain Showers
6:35 PM 68.0 °F 64.4 °F 88% 30.06 in 1.2 mi North 10.4 mph - N/A Rain Heavy Rain Showers
6:37 PM 68.0 °F 64.4 °F 88% 30.06 in 1.9 mi North 10.4 mph - N/A Rain Rain Showers
7:00 PM 66.2 °F 64.4 °F 94% 30.06 in 3.1 mi North 12.7 mph - N/A Rain Light Rain Showers
7:25 PM 66.2 °F 64.4 °F 94% 30.06 in 2.5 mi North 13.8 mph 25.3 mph N/A Rain Light Rain Showers
7:36 PM 66.2 °F 64.4 °F 94% 30.09 in 3.1 mi North 13.8 mph - N/A Rain Light Rain Showers
8:00 PM 66.2 °F 62.6 °F 88% 30.09 in 1.9 mi North 12.7 mph - N/A Rain Light Rain Showers
9:00 PM 64 °F 63 °F 96% 30.14 in 4 mi North 16.1 mph - - Rain Light Rain Showers